Location: Westminster
(33.3626°N, 96.4619°W)
Time: 20:58:41
(UTC+00:00)

Cosmos 1763 Rocket - Pass Details

Date: 10 July 2022
Orbit: 732 x 780 km, 74.0° (Epoch: 13 August)

Event Time Altitude Azimuth Distance (km) Brightness Sun altitude
Exits shadow 07:21:20 17° 307° (NW) 1,861 5.7 -33.1°
Drops below altitude 10° 07:24:09 10° 339° (NNW) 2,322 6.6 -33.0°
Sets 07:27:22 0° 359° (N) 3,259 7.7 -32.8°
